Starlink 1212

operational
NORAD ID: 45223 Int'l Des: 2020-012 Owner: SPXS Country: US Constellation: starlink
LEOCIRCULAR

Starlink 1212について

説明を読み込み中...

リアルタイム位置

3D地球を読み込み中...

次回通過

高度履歴

Altitude vs Time

uPlot chart will show altitude changes over time

軌道要素

1 45223U 20012AX 26061.18419855 .00098455 00000-0 16925-2 0 9993
2 45223 53.0504 26.1694 0005837 77.7185 282.4476 15.50337282334471
Epoch: Mar 2, 2026 • Age: 29 hours

現在のステータス

高度 423.3 km
速度 7.66 km/s
衛星直下点 -23.49°S, 125.59°E
打ち上げ日 Feb 17, 2020
運用期間 6 years
タイプ internet

技術仕様

分類 Payload
質量 260.00 kg
乾燥質量 248.00 kg
総質量 260.00 kg
長さ 0.20 m
直径 2.80 m
スパン 9.00 m
形状 Box + pan
製造者 SPXS
バスタイプ Starlink
フェーズステータス In Orbit
所有者/国 SPXS/US

大規模コンステレーション

Loading constellations...